Retour au catalogue

ARIANE 1 DEB

ActifGTO
NORAD 27732·DEBRIS·🇫🇷 France

Lancé Dec 24, 1979 depuis Guiana Space Centre

Loading…

TLE

VieillissantSource: Space-Track

Époque: Sep 14, 2026, 13:11 UTC

1 27732U 79104S   26257.54978685  .00000460  00000-0  73863-1 0  9994
2 27732  16.7540 338.7340 7326007 236.8931  31.8730  1.93238128 87779

Suivez ARIANE 1 DEB en temps réel avec AllMySat

Download on the App Store